Location: Casilda
(33.0440°S, 61.1680°W)
Time: 11:01:53
(UTC-03:00)

ISS - Visible Passes

Search period start: 22 May 2018 00:00
Search period end: 01 June 2018 00:00
Orbit: 402 x 407 km, 51.6° (Epoch: 23 May)

Date Brightness Start Highest point End Pass type
(mag) Time Alt. Az. Time Alt. Az. Time Alt. Az.
25 May -0.9 06:50:03 10° N 06:52:34 21° NE 06:55:09 10° ESE visible
27 May -3.3 06:41:13 10° NW 06:44:28 62° NE 06:47:47 10° SE visible
28 May -1.7 05:52:27 27° NE 05:52:27 27° NE 05:55:14 10° ESE visible
28 May -2.5 07:26:07 10° W 07:28:49 23° SW 07:31:34 10° SSE visible
29 May -3.5 06:36:21 43° SW 06:36:28 43° SW 06:39:42 10° SSE visible
30 May -0.9 05:47:07 13° SE 05:47:07 13° SE 05:47:33 10° SE visible
30 May -1.6 07:19:51 10° SW 07:21:06 12° SSW 07:22:23 10° S visible
31 May -1.4 06:30:18 14° S 06:30:18 14° S 06:31:05 10° SSE visible
